TimeCDT,TemperatureF,Dew PointF,Humidity,Sea Level PressureIn,VisibilityMPH,Wind Direction,Wind SpeedMPH,Gust SpeedMPH,PrecipitationIn,Events,Conditions,WindDirDegrees,DateUTC
12:15 AM,15.8,12.2,86,30.11,10.0,Calm,Calm,-,N/A,,Clear,0,2013-03-21 05:15:00
12:35 AM,17.6,12.2,79,30.11,10.0,Calm,Calm,-,N/A,,Clear,0,2013-03-21 05:35:00
1:15 AM,17.6,14.0,86,30.10,10.0,NNE,3.5,-,N/A,,Clear,20,2013-03-21 06:15:00
1:35 AM,17.6,12.2,79,30.10,10.0,North,3.5,-,N/A,,Clear,360,2013-03-21 06:35:00
1:55 AM,17.6,12.2,79,30.09,10.0,NNE,5.8,-,N/A,,Clear,30,2013-03-21 06:55:00
2:15 AM,17.6,12.2,79,30.09,10.0,NE,6.9,-,N/A,,Clear,40,2013-03-21 07:15:00
2:35 AM,17.6,12.2,79,30.08,10.0,NE,8.1,-,N/A,,Clear,50,2013-03-21 07:35:00
2:55 AM,17.6,12.2,79,30.08,10.0,NE,5.8,-,N/A,,Clear,50,2013-03-21 07:55:00
3:15 AM,15.8,12.2,86,30.08,10.0,ENE,3.5,-,N/A,,Clear,70,2013-03-21 08:15:00
3:35 AM,15.8,10.4,79,30.08,10.0,Calm,Calm,-,N/A,,Clear,0,2013-03-21 08:35:00
3:55 AM,15.8,10.4,79,30.08,10.0,ENE,3.5,-,N/A,,Clear,70,2013-03-21 08:55:00
4:15 AM,15.8,10.4,79,30.08,10.0,Calm,Calm,-,N/A,,Clear,0,2013-03-21 09:15:00
4:35 AM,15.8,10.4,79,30.08,10.0,Calm,Calm,-,N/A,,Clear,0,2013-03-21 09:35:00
4:55 AM,15.8,10.4,79,30.07,10.0,Calm,Calm,-,N/A,,Clear,0,2013-03-21 09:55:00
5:15 AM,15.8,10.4,79,30.07,10.0,Calm,Calm,-,N/A,,Clear,0,2013-03-21 10:15:00
5:35 AM,14.0,10.4,86,30.06,10.0,Calm,Calm,-,N/A,,Clear,0,2013-03-21 10:35:00
5:55 AM,14.0,10.4,86,30.06,10.0,Calm,Calm,-,N/A,,Clear,0,2013-03-21 10:55:00
6:15 AM,14.0,10.4,86,30.06,10.0,ENE,3.5,-,N/A,,Clear,70,2013-03-21 11:15:00
6:35 AM,14.0,10.4,86,30.05,10.0,East,4.6,-,N/A,,Clear,80,2013-03-21 11:35:00
6:55 AM,14.0,10.4,86,30.06,10.0,East,4.6,-,N/A,,Clear,90,2013-03-21 11:55:00
7:15 AM,14.0,10.4,86,30.06,10.0,East,5.8,-,N/A,,Clear,80,2013-03-21 12:15:00
7:35 AM,14.0,10.4,86,30.07,10.0,Calm,Calm,-,N/A,,Clear,0,2013-03-21 12:35:00
7:55 AM,15.8,10.4,79,30.06,10.0,East,6.9,-,N/A,,Clear,100,2013-03-21 12:55:00
8:15 AM,15.8,10.4,79,30.06,10.0,ESE,8.1,-,N/A,,Clear,110,2013-03-21 13:15:00
8:35 AM,15.8,10.4,79,30.06,10.0,East,6.9,-,N/A,,Clear,100,2013-03-21 13:35:00
8:55 AM,15.8,10.4,79,30.06,10.0,East,6.9,-,N/A,,Clear,100,2013-03-21 13:55:00
9:15 AM,17.6,10.4,73,30.06,10.0,ESE,8.1,-,N/A,,Clear,120,2013-03-21 14:15:00
9:35 AM,17.6,12.2,79,30.06,10.0,ESE,9.2,-,N/A,,Clear,120,2013-03-21 14:35:00
9:55 AM,19.4,12.2,74,30.05,10.0,ESE,8.1,-,N/A,,Clear,110,2013-03-21 14:55:00
10:15 AM,19.4,12.2,74,30.04,10.0,ESE,6.9,-,N/A,,Clear,120,2013-03-21 15:15:00
10:35 AM,21.2,15.8,80,30.04,10.0,SE,6.9,-,N/A,,Clear,130,2013-03-21 15:35:00
10:55 AM,23.0,14.0,68,30.03,10.0,East,6.9,-,N/A,,Clear,100,2013-03-21 15:55:00
11:15 AM,24.8,15.8,69,30.02,10.0,SE,5.8,-,N/A,,Clear,140,2013-03-21 16:15:00
11:35 AM,26.6,14.0,59,30.02,10.0,East,5.8,-,N/A,,Clear,100,2013-03-21 16:35:00
11:55 AM,28.4,15.8,59,30.02,10.0,East,9.2,-,N/A,,Clear,100,2013-03-21 16:55:00
12:15 PM,28.4,14.0,55,30.02,10.0,East,5.8,-,N/A,,Clear,90,2013-03-21 17:15:00
12:35 PM,28.4,14.0,55,30.01,10.0,SE,4.6,-,N/A,,Clear,130,2013-03-21 17:35:00
12:55 PM,30.2,14.0,51,30.00,10.0,East,4.6,-,N/A,,Clear,100,2013-03-21 17:55:00
1:15 PM,30.2,15.8,55,30.00,10.0,East,8.1,-,N/A,,Clear,90,2013-03-21 18:15:00
1:35 PM,33.8,17.6,52,29.99,10.0,ESE,9.2,-,N/A,,Mostly Cloudy,110,2013-03-21 18:35:00
1:55 PM,32.0,15.8,51,29.98,10.0,East,9.2,-,N/A,,Scattered Clouds,80,2013-03-21 18:55:00
2:15 PM,33.8,17.6,52,29.98,10.0,ESE,9.2,-,N/A,,Clear,110,2013-03-21 19:15:00
2:35 PM,33.8,17.6,52,29.97,10.0,ESE,6.9,-,N/A,,Clear,110,2013-03-21 19:35:00
2:55 PM,33.8,17.6,52,29.96,10.0,ENE,10.4,-,N/A,,Clear,70,2013-03-21 19:55:00
3:15 PM,33.8,17.6,52,29.95,10.0,East,6.9,-,N/A,,Clear,80,2013-03-21 20:15:00
3:35 PM,35.6,17.6,48,29.95,10.0,East,10.4,-,N/A,,Mostly Cloudy,100,2013-03-21 20:35:00
3:55 PM,35.6,15.8,44,29.94,10.0,East,6.9,-,N/A,,Overcast,80,2013-03-21 20:55:00
4:15 PM,33.8,17.6,52,29.94,10.0,ENE,10.4,-,N/A,,Mostly Cloudy,70,2013-03-21 21:15:00
4:35 PM,33.8,17.6,52,29.95,10.0,East,9.2,-,N/A,,Overcast,80,2013-03-21 21:35:00
4:55 PM,33.8,17.6,52,29.94,10.0,ENE,6.9,-,N/A,,Overcast,70,2013-03-21 21:55:00
5:15 PM,33.8,17.6,52,29.94,10.0,ENE,9.2,-,N/A,,Overcast,70,2013-03-21 22:15:00
5:35 PM,33.8,17.6,52,29.94,10.0,East,9.2,-,N/A,,Overcast,80,2013-03-21 22:35:00
5:55 PM,33.8,17.6,52,29.94,10.0,ENE,10.4,-,N/A,,Overcast,60,2013-03-21 22:55:00
6:15 PM,32.0,17.6,55,29.94,10.0,East,10.4,-,N/A,,Overcast,80,2013-03-21 23:15:00
6:35 PM,32.0,17.6,55,29.94,10.0,East,8.1,-,N/A,,Overcast,90,2013-03-21 23:35:00
6:55 PM,30.2,17.6,60,29.95,10.0,ENE,8.1,-,N/A,,Scattered Clouds,70,2013-03-21 23:55:00
7:15 PM,30.2,17.6,60,29.96,10.0,ENE,6.9,-,N/A,,Clear,70,2013-03-22 00:15:00
7:35 PM,28.4,19.4,69,29.97,10.0,ENE,4.6,-,N/A,,Clear,70,2013-03-22 00:35:00
7:55 PM,28.4,19.4,69,29.97,10.0,ENE,3.5,-,N/A,,Clear,70,2013-03-22 00:55:00
8:15 PM,26.6,19.4,74,29.97,10.0,ENE,3.5,-,N/A,,Clear,60,2013-03-22 01:15:00
8:35 PM,26.6,19.4,74,29.97,10.0,NE,3.5,-,N/A,,Clear,40,2013-03-22 01:35:00
8:55 PM,24.8,19.4,80,29.98,10.0,ENE,3.5,-,N/A,,Clear,60,2013-03-22 01:55:00
9:15 PM,26.6,19.4,74,29.98,10.0,ENE,4.6,-,N/A,,Clear,60,2013-03-22 02:15:00
9:35 PM,26.6,21.2,80,29.98,10.0,East,6.9,-,N/A,,Clear,80,2013-03-22 02:35:00
9:55 PM,26.6,21.2,80,29.99,10.0,East,6.9,-,N/A,,Clear,80,2013-03-22 02:55:00
10:15 PM,26.6,19.4,74,30.00,10.0,East,6.9,-,N/A,,Clear,80,2013-03-22 03:15:00
10:35 PM,24.8,19.4,80,30.00,10.0,ENE,4.6,-,N/A,,Clear,70,2013-03-22 03:35:00
10:55 PM,24.8,19.4,80,30.01,10.0,ENE,5.8,-,N/A,,Clear,70,2013-03-22 03:55:00
11:15 PM,24.8,19.4,80,30.01,10.0,ENE,5.8,-,N/A,,Clear,70,2013-03-22 04:15:00
11:35 PM,24.8,19.4,80,30.01,10.0,East,8.1,-,N/A,,Clear,80,2013-03-22 04:35:00
11:55 PM,24.8,19.4,80,30.01,10.0,East,8.1,-,N/A,,Clear,80,2013-03-22 04:55:00